iso_date,Year,Hour,Min,DOY,POS_DOY,Lat,Lon,BP,Ts,Ta,has_bp,has_ts,has_ta,BuoyID,Buoy_Type,Buoy_Owner,Logistics,Hemisphere
2020-09-18T07:00:02Z,2020,7,0,262.2917,262.2917,65.777,-53.255,-999.0,4.8,-999.0,no,yes,no,300234068243460,SVPGHI,AOML,UNKNOWN,North
2020-09-18T07:59:57Z,2020,8,0,262.3333,262.3333,65.777,-53.243,-999.0,4.78,-999.0,no,yes,no,300234068243460,SVPGHI,AOML,UNKNOWN,North
2020-09-18T09:00:00Z,2020,9,0,262.375,262.375,65.78,-53.238,-999.0,4.78,-999.0,no,yes,no,300234068243460,SVPGHI,AOML,UNKNOWN,North
2020-09-18T10:00:02Z,2020,10,0,262.4167,262.4167,65.78,-53.233,-999.0,4.72,-999.0,no,yes,no,300234068243460,SVPGHI,AOML,UNKNOWN,North
2020-09-18T10:59:57Z,2020,11,0,262.4583,262.4583,65.78,-53.231,-999.0,4.7,-999.0,no,yes,no,300234068243460,SVPGHI,AOML,UNKNOWN,North
2020-09-18T12:00:00Z,2020,12,0,262.5,262.5,65.78,-53.231,-999.0,4.79,-999.0,no,yes,no,300234068243460,SVPGHI,AOML,UNKNOWN,North
2020-09-18T13:00:02Z,2020,13,0,262.5417,262.5417,65.779,-53.241,-999.0,4.8,-999.0,no,yes,no,300234068243460,SVPGHI,AOML,UNKNOWN,North
2020-09-18T13:59:57Z,2020,14,0,262.5833,262.5833,65.779,-53.241,-999.0,4.69,-999.0,no,yes,no,300234068243460,SVPGHI,AOML,UNKNOWN,North
2020-09-18T15:00:00Z,2020,15,0,262.625,262.625,65.781,-53.239,-999.0,4.72,-999.0,no,yes,no,300234068243460,SVPGHI,AOML,UNKNOWN,North
2020-09-18T16:00:02Z,2020,16,0,262.6667,262.6667,65.781,-53.238,-999.0,4.74,-999.0,no,yes,no,300234068243460,SVPGHI,AOML,UNKNOWN,North
2020-09-18T16:59:57Z,2020,17,0,262.7083,262.7083,65.781,-53.241,-999.0,4.86,-999.0,no,yes,no,300234068243460,SVPGHI,AOML,UNKNOWN,North
2020-09-18T18:00:00Z,2020,18,0,262.75,262.75,65.782,-53.237,-999.0,4.91,-999.0,no,yes,no,300234068243460,SVPGHI,AOML,UNKNOWN,North
2020-09-18T19:00:02Z,2020,19,0,262.7917,262.7917,65.781,-53.239,-999.0,5.03,-999.0,no,yes,no,300234068243460,SVPGHI,AOML,UNKNOWN,North
2020-09-18T19:59:57Z,2020,20,0,262.8333,262.8333,65.782,-53.236,-999.0,5.02,-999.0,no,yes,no,300234068243460,SVPGHI,AOML,UNKNOWN,North
2020-09-18T21:00:00Z,2020,21,0,262.875,262.875,65.788,-53.229,-999.0,4.9,-999.0,no,yes,no,300234068243460,SVPGHI,AOML,UNKNOWN,North
2020-09-18T22:00:02Z,2020,22,0,262.9167,262.9167,65.79,-53.222,-999.0,4.8,-999.0,no,yes,no,300234068243460,SVPGHI,AOML,UNKNOWN,North
2020-09-18T22:59:57Z,2020,23,0,262.9583,262.9583,65.788,-53.226,-999.0,4.78,-999.0,no,yes,no,300234068243460,SVPGHI,AOML,UNKNOWN,North
2020-09-19T00:00:00Z,2020,0,0,263.0,263.0,65.788,-53.227,-999.0,4.77,-999.0,no,yes,no,300234068243460,SVPGHI,AOML,UNKNOWN,North
2020-09-19T01:00:02Z,2020,1,0,263.0417,263.0417,65.786,-53.221,-999.0,4.63,-999.0,no,yes,no,300234068243460,SVPGHI,AOML,UNKNOWN,North
2020-09-19T01:59:57Z,2020,2,0,263.0833,263.0833,65.786,-53.23,-999.0,4.63,-999.0,no,yes,no,300234068243460,SVPGHI,AOML,UNKNOWN,North
2020-09-19T03:00:00Z,2020,3,0,263.125,263.125,65.784,-53.232,-999.0,4.52,-999.0,no,yes,no,300234068243460,SVPGHI,AOML,UNKNOWN,North
2020-09-19T04:00:02Z,2020,4,0,263.1667,263.1667,65.784,-53.233,-999.0,4.5,-999.0,no,yes,no,300234068243460,SVPGHI,AOML,UNKNOWN,North
2020-09-19T04:59:57Z,2020,5,0,263.2083,263.2083,65.784,-53.233,-999.0,4.49,-999.0,no,yes,no,300234068243460,SVPGHI,AOML,UNKNOWN,North
2020-09-19T06:00:00Z,2020,6,0,263.25,263.25,65.784,-53.233,-999.0,4.4,-999.0,no,yes,no,300234068243460,SVPGHI,AOML,UNKNOWN,North
2020-09-19T07:00:02Z,2020,7,0,263.2917,263.2917,65.784,-53.232,-999.0,4.26,-999.0,no,yes,no,300234068243460,SVPGHI,AOML,UNKNOWN,North
2020-09-19T07:59:57Z,2020,8,0,263.3333,263.3333,65.784,-53.231,-999.0,4.26,-999.0,no,yes,no,300234068243460,SVPGHI,AOML,UNKNOWN,North
2020-09-19T09:00:00Z,2020,9,0,263.375,263.375,65.787,-53.233,-999.0,4.31,-999.0,no,yes,no,300234068243460,SVPGHI,AOML,UNKNOWN,North
2020-09-19T10:00:02Z,2020,10,0,263.4167,263.4167,65.788,-53.228,-999.0,4.34,-999.0,no,yes,no,300234068243460,SVPGHI,AOML,UNKNOWN,North
2020-09-19T10:59:57Z,2020,11,0,263.4583,263.4583,65.786,-53.231,-999.0,4.29,-999.0,no,yes,no,300234068243460,SVPGHI,AOML,UNKNOWN,North
2020-09-19T12:00:00Z,2020,12,0,263.5,263.5,65.786,-53.231,-999.0,4.32,-999.0,no,yes,no,300234068243460,SVPGHI,AOML,UNKNOWN,North
2020-09-19T13:00:02Z,2020,13,0,263.5417,263.5417,65.786,-53.232,-999.0,4.36,-999.0,no,yes,no,300234068243460,SVPGHI,AOML,UNKNOWN,North
2020-09-19T13:59:57Z,2020,14,0,263.5833,263.5833,65.786,-53.235,-999.0,4.37,-999.0,no,yes,no,300234068243460,SVPGHI,AOML,UNKNOWN,North
2020-09-19T15:00:00Z,2020,15,0,263.625,263.625,65.789,-53.244,-999.0,4.55,-999.0,no,yes,no,300234068243460,SVPGHI,AOML,UNKNOWN,North
2020-09-19T16:00:02Z,2020,16,0,263.6667,263.6667,65.784,-53.234,-999.0,4.59,-999.0,no,yes,no,300234068243460,SVPGHI,AOML,UNKNOWN,North
2020-09-19T16:59:57Z,2020,17,0,263.7083,263.7083,65.783,-53.235,-999.0,4.58,-999.0,no,yes,no,300234068243460,SVPGHI,AOML,UNKNOWN,North
2020-09-19T18:00:00Z,2020,18,0,263.75,263.75,65.783,-53.235,-999.0,4.65,-999.0,no,yes,no,300234068243460,SVPGHI,AOML,UNKNOWN,North
2020-09-19T19:00:02Z,2020,19,0,263.7917,263.7917,65.782,-53.236,-999.0,4.79,-999.0,no,yes,no,300234068243460,SVPGHI,AOML,UNKNOWN,North
2020-09-19T19:59:57Z,2020,20,0,263.8333,263.8333,65.783,-53.235,-999.0,4.75,-999.0,no,yes,no,300234068243460,SVPGHI,AOML,UNKNOWN,North
2020-09-19T21:00:00Z,2020,21,0,263.875,263.875,65.783,-53.234,-999.0,4.68,-999.0,no,yes,no,300234068243460,SVPGHI,AOML,UNKNOWN,North
2020-09-19T22:00:02Z,2020,22,0,263.9167,263.9167,65.784,-53.233,-999.0,4.8,-999.0,no,yes,no,300234068243460,SVPGHI,AOML,UNKNOWN,North
2020-09-19T22:59:57Z,2020,23,0,263.9583,263.9583,65.784,-53.233,-999.0,4.65,-999.0,no,yes,no,300234068243460,SVPGHI,AOML,UNKNOWN,North
2020-09-20T00:00:00Z,2020,0,0,264.0,264.0,65.785,-53.232,-999.0,4.69,-999.0,no,yes,no,300234068243460,SVPGHI,AOML,UNKNOWN,North
2020-09-20T01:00:02Z,2020,1,0,264.0417,264.0417,65.785,-53.232,-999.0,4.65,-999.0,no,yes,no,300234068243460,SVPGHI,AOML,UNKNOWN,North
2020-09-20T01:59:57Z,2020,2,0,264.0833,264.0833,65.785,-53.232,-999.0,4.47,-999.0,no,yes,no,300234068243460,SVPGHI,AOML,UNKNOWN,North
2020-09-20T03:00:00Z,2020,3,0,264.125,264.125,65.785,-53.232,-999.0,4.52,-999.0,no,yes,no,300234068243460,SVPGHI,AOML,UNKNOWN,North
2020-09-20T04:00:02Z,2020,4,0,264.1667,264.1667,65.782,-53.239,-999.0,4.57,-999.0,no,yes,no,300234068243460,SVPGHI,AOML,UNKNOWN,North
2020-09-20T04:59:57Z,2020,5,0,264.2083,264.2083,65.785,-53.232,-999.0,4.48,-999.0,no,yes,no,300234068243460,SVPGHI,AOML,UNKNOWN,North
2020-09-20T06:00:00Z,2020,6,0,264.25,264.25,65.785,-53.232,-999.0,4.44,-999.0,no,yes,no,300234068243460,SVPGHI,AOML,UNKNOWN,North
2020-09-20T07:00:02Z,2020,7,0,264.2917,264.2917,65.784,-53.232,-999.0,4.47,-999.0,no,yes,no,300234068243460,SVPGHI,AOML,UNKNOWN,North
2020-09-20T07:59:57Z,2020,8,0,264.3333,264.3333,65.784,-53.229,-999.0,4.43,-999.0,no,yes,no,300234068243460,SVPGHI,AOML,UNKNOWN,North
2020-09-20T09:00:00Z,2020,9,0,264.375,264.375,65.785,-53.232,-999.0,4.34,-999.0,no,yes,no,300234068243460,SVPGHI,AOML,UNKNOWN,North
2020-09-20T10:00:02Z,2020,10,0,264.4167,264.4167,65.785,-53.232,-999.0,4.38,-999.0,no,yes,no,300234068243460,SVPGHI,AOML,UNKNOWN,North
2020-09-20T10:59:57Z,2020,11,0,264.4583,264.4583,65.788,-53.23,-999.0,4.51,-999.0,no,yes,no,300234068243460,SVPGHI,AOML,UNKNOWN,North
2020-09-20T12:00:00Z,2020,12,0,264.5,264.5,65.789,-53.223,-999.0,4.41,-999.0,no,yes,no,300234068243460,SVPGHI,AOML,UNKNOWN,North
2020-09-20T13:00:02Z,2020,13,0,264.5417,264.5417,65.788,-53.226,-999.0,4.33,-999.0,no,yes,no,300234068243460,SVPGHI,AOML,UNKNOWN,North
2020-09-20T13:59:57Z,2020,14,0,264.5833,264.5833,65.786,-53.226,-999.0,4.33,-999.0,no,yes,no,300234068243460,SVPGHI,AOML,UNKNOWN,North
2020-09-20T15:00:00Z,2020,15,0,264.625,264.625,65.784,-53.234,-999.0,4.37,-999.0,no,yes,no,300234068243460,SVPGHI,AOML,UNKNOWN,North
2020-09-20T16:00:02Z,2020,16,0,264.6667,264.6667,65.78,-53.236,-999.0,4.61,-999.0,no,yes,no,300234068243460,SVPGHI,AOML,UNKNOWN,North
2020-09-20T16:59:57Z,2020,17,0,264.7083,264.7083,65.778,-53.244,-999.0,4.7,-999.0,no,yes,no,300234068243460,SVPGHI,AOML,UNKNOWN,North
2020-09-20T18:00:00Z,2020,18,0,264.75,264.75,65.775,-53.253,-999.0,4.74,-999.0,no,yes,no,300234068243460,SVPGHI,AOML,UNKNOWN,North
2020-09-20T19:00:02Z,2020,19,0,264.7917,264.7917,65.772,-53.265,-999.0,4.38,-999.0,no,yes,no,300234068243460,SVPGHI,AOML,UNKNOWN,North
2020-09-20T19:59:57Z,2020,20,0,264.8333,264.8333,65.769,-53.272,-999.0,4.35,-999.0,no,yes,no,300234068243460,SVPGHI,AOML,UNKNOWN,North
2020-09-20T21:00:00Z,2020,21,0,264.875,264.875,65.765,-53.27,-999.0,4.29,-999.0,no,yes,no,300234068243460,SVPGHI,AOML,UNKNOWN,North
2020-09-20T22:00:02Z,2020,22,0,264.9167,264.9167,65.768,-53.268,-999.0,4.25,-999.0,no,yes,no,300234068243460,SVPGHI,AOML,UNKNOWN,North
2020-09-20T22:59:57Z,2020,23,0,264.9583,264.9583,65.773,-53.262,-999.0,4.2,-999.0,no,yes,no,300234068243460,SVPGHI,AOML,UNKNOWN,North
2020-09-21T00:00:00Z,2020,0,0,265.0,265.0,65.778,-53.249,-999.0,4.19,-999.0,no,yes,no,300234068243460,SVPGHI,AOML,UNKNOWN,North
2020-09-21T01:00:02Z,2020,1,0,265.0417,265.0417,65.777,-53.247,-999.0,4.17,-999.0,no,yes,no,300234068243460,SVPGHI,AOML,UNKNOWN,North
2020-09-21T01:59:57Z,2020,2,0,265.0833,265.0833,65.779,-53.249,-999.0,4.38,-999.0,no,yes,no,300234068243460,SVPGHI,AOML,UNKNOWN,North
2020-09-21T03:00:00Z,2020,3,0,265.125,265.125,65.78,-53.252,-999.0,4.33,-999.0,no,yes,no,300234068243460,SVPGHI,AOML,UNKNOWN,North
2020-09-21T04:00:02Z,2020,4,0,265.1667,265.1667,65.781,-53.26,-999.0,4.35,-999.0,no,yes,no,300234068243460,SVPGHI,AOML,UNKNOWN,North
2020-09-21T04:59:57Z,2020,5,0,265.2083,265.2083,65.78,-53.271,-999.0,4.2,-999.0,no,yes,no,300234068243460,SVPGHI,AOML,UNKNOWN,North
2020-09-21T06:00:00Z,2020,6,0,265.25,265.25,65.778,-53.283,-999.0,4.13,-999.0,no,yes,no,300234068243460,SVPGHI,AOML,UNKNOWN,North
2020-09-21T07:00:02Z,2020,7,0,265.2917,265.2917,65.775,-53.288,-999.0,4.11,-999.0,no,yes,no,300234068243460,SVPGHI,AOML,UNKNOWN,North
2020-09-21T07:59:57Z,2020,8,0,265.3333,265.3333,65.774,-53.288,-999.0,4.09,-999.0,no,yes,no,300234068243460,SVPGHI,AOML,UNKNOWN,North
2020-09-21T09:00:00Z,2020,9,0,265.375,265.375,65.772,-53.285,-999.0,4.13,-999.0,no,yes,no,300234068243460,SVPGHI,AOML,UNKNOWN,North
2020-09-21T10:00:02Z,2020,10,0,265.4167,265.4167,65.775,-53.281,-999.0,4.09,-999.0,no,yes,no,300234068243460,SVPGHI,AOML,UNKNOWN,North
2020-09-21T10:59:57Z,2020,11,0,265.4583,265.4583,65.781,-53.271,-999.0,4.14,-999.0,no,yes,no,300234068243460,SVPGHI,AOML,UNKNOWN,North
2020-09-21T12:00:00Z,2020,12,0,265.5,265.5,65.788,-53.26,-999.0,4.14,-999.0,no,yes,no,300234068243460,SVPGHI,AOML,UNKNOWN,North
2020-09-21T13:00:02Z,2020,13,0,265.5417,265.5417,65.798,-53.247,-999.0,4.13,-999.0,no,yes,no,300234068243460,SVPGHI,AOML,UNKNOWN,North
2020-09-21T13:59:57Z,2020,14,0,265.5833,265.5833,65.803,-53.238,-999.0,4.31,-999.0,no,yes,no,300234068243460,SVPGHI,AOML,UNKNOWN,North
2020-09-21T15:00:00Z,2020,15,0,265.625,265.625,65.807,-53.236,-999.0,4.41,-999.0,no,yes,no,300234068243460,SVPGHI,AOML,UNKNOWN,North
2020-09-21T16:00:02Z,2020,16,0,265.6667,265.6667,65.81,-53.238,-999.0,4.41,-999.0,no,yes,no,300234068243460,SVPGHI,AOML,UNKNOWN,North
2020-09-21T16:59:57Z,2020,17,0,265.7083,265.7083,65.813,-53.241,-999.0,4.38,-999.0,no,yes,no,300234068243460,SVPGHI,AOML,UNKNOWN,North
2020-09-21T18:00:00Z,2020,18,0,265.75,265.75,65.813,-53.242,-999.0,4.37,-999.0,no,yes,no,300234068243460,SVPGHI,AOML,UNKNOWN,North
2020-09-21T19:00:02Z,2020,19,0,265.7917,265.7917,65.811,-53.241,-999.0,4.31,-999.0,no,yes,no,300234068243460,SVPGHI,AOML,UNKNOWN,North
2020-09-21T19:59:57Z,2020,20,0,265.8333,265.8333,65.808,-53.241,-999.0,4.36,-999.0,no,yes,no,300234068243460,SVPGHI,AOML,UNKNOWN,North
2020-09-21T21:00:00Z,2020,21,0,265.875,265.875,65.805,-53.243,-999.0,4.35,-999.0,no,yes,no,300234068243460,SVPGHI,AOML,UNKNOWN,North
2020-09-21T22:00:02Z,2020,22,0,265.9167,265.9167,65.805,-53.241,-999.0,4.31,-999.0,no,yes,no,300234068243460,SVPGHI,AOML,UNKNOWN,North
2020-09-21T22:59:57Z,2020,23,0,265.9583,265.9583,65.809,-53.243,-999.0,4.27,-999.0,no,yes,no,300234068243460,SVPGHI,AOML,UNKNOWN,North
2020-09-22T00:01:00Z,2020,0,1,266.0007,266.0007,65.811,-53.233,-999.0,4.29,-999.0,no,yes,no,300234068243460,SVPGHI,AOML,UNKNOWN,North
2020-09-22T01:00:02Z,2020,1,0,266.0417,266.0417,65.815,-53.227,-999.0,4.28,-999.0,no,yes,no,300234068243460,SVPGHI,AOML,UNKNOWN,North
2020-09-22T01:59:57Z,2020,2,0,266.0833,266.0833,65.818,-53.225,-999.0,4.28,-999.0,no,yes,no,300234068243460,SVPGHI,AOML,UNKNOWN,North
2020-09-22T03:00:00Z,2020,3,0,266.125,266.125,65.82,-53.226,-999.0,4.22,-999.0,no,yes,no,300234068243460,SVPGHI,AOML,UNKNOWN,North
2020-09-22T04:00:02Z,2020,4,0,266.1667,266.1667,65.821,-53.228,-999.0,4.26,-999.0,no,yes,no,300234068243460,SVPGHI,AOML,UNKNOWN,North
2020-09-22T04:59:57Z,2020,5,0,266.2083,266.2083,65.821,-53.231,-999.0,4.27,-999.0,no,yes,no,300234068243460,SVPGHI,AOML,UNKNOWN,North
2020-09-22T06:00:00Z,2020,6,0,266.25,266.25,65.821,-53.235,-999.0,4.26,-999.0,no,yes,no,300234068243460,SVPGHI,AOML,UNKNOWN,North
2020-09-22T07:00:02Z,2020,7,0,266.2917,266.2917,65.818,-53.237,-999.0,4.24,-999.0,no,yes,no,300234068243460,SVPGHI,AOML,UNKNOWN,North
2020-09-22T07:59:57Z,2020,8,0,266.3333,266.3333,65.816,-53.239,-999.0,4.27,-999.0,no,yes,no,300234068243460,SVPGHI,AOML,UNKNOWN,North
2020-09-22T09:00:00Z,2020,9,0,266.375,266.375,65.813,-53.243,-999.0,4.25,-999.0,no,yes,no,300234068243460,SVPGHI,AOML,UNKNOWN,North
2020-09-22T10:00:02Z,2020,10,0,266.4167,266.4167,65.811,-53.246,-999.0,4.21,-999.0,no,yes,no,300234068243460,SVPGHI,AOML,UNKNOWN,North
2020-09-22T10:59:57Z,2020,11,0,266.4583,266.4583,65.813,-53.248,-999.0,4.16,-999.0,no,yes,no,300234068243460,SVPGHI,AOML,UNKNOWN,North
2020-09-22T12:00:00Z,2020,12,0,266.5,266.5,65.817,-53.245,-999.0,4.19,-999.0,no,yes,no,300234068243460,SVPGHI,AOML,UNKNOWN,North
2020-09-22T13:00:02Z,2020,13,0,266.5417,266.5417,65.821,-53.241,-999.0,4.19,-999.0,no,yes,no,300234068243460,SVPGHI,AOML,UNKNOWN,North
2020-09-22T13:59:57Z,2020,14,0,266.5833,266.5833,65.825,-53.24,-999.0,4.14,-999.0,no,yes,no,300234068243460,SVPGHI,AOML,UNKNOWN,North
2020-09-22T15:00:00Z,2020,15,0,266.625,266.625,65.828,-53.239,-999.0,4.15,-999.0,no,yes,no,300234068243460,SVPGHI,AOML,UNKNOWN,North
2020-09-22T16:00:02Z,2020,16,0,266.6667,266.6667,65.83,-53.239,-999.0,4.16,-999.0,no,yes,no,300234068243460,SVPGHI,AOML,UNKNOWN,North
2020-09-22T16:59:57Z,2020,17,0,266.7083,266.7083,65.832,-53.24,-999.0,4.17,-999.0,no,yes,no,300234068243460,SVPGHI,AOML,UNKNOWN,North
2020-09-22T18:00:00Z,2020,18,0,266.75,266.75,65.834,-53.239,-999.0,4.2,-999.0,no,yes,no,300234068243460,SVPGHI,AOML,UNKNOWN,North
2020-09-22T19:00:02Z,2020,19,0,266.7917,266.7917,65.829,-53.243,-999.0,4.17,-999.0,no,yes,no,300234068243460,SVPGHI,AOML,UNKNOWN,North
2020-09-22T19:59:57Z,2020,20,0,266.8333,266.8333,65.826,-53.242,-999.0,4.13,-999.0,no,yes,no,300234068243460,SVPGHI,AOML,UNKNOWN,North
2020-09-22T21:00:00Z,2020,21,0,266.875,266.875,65.825,-53.242,-999.0,4.13,-999.0,no,yes,no,300234068243460,SVPGHI,AOML,UNKNOWN,North
2020-09-22T22:00:02Z,2020,22,0,266.9167,266.9167,65.824,-53.241,-999.0,4.06,-999.0,no,yes,no,300234068243460,SVPGHI,AOML,UNKNOWN,North
2020-09-22T22:59:57Z,2020,23,0,266.9583,266.9583,65.824,-53.239,-999.0,4.06,-999.0,no,yes,no,300234068243460,SVPGHI,AOML,UNKNOWN,North
2020-09-23T00:00:00Z,2020,0,0,267.0,267.0,65.825,-53.236,-999.0,4.07,-999.0,no,yes,no,300234068243460,SVPGHI,AOML,UNKNOWN,North
2020-09-23T01:00:02Z,2020,1,0,267.0417,267.0417,65.827,-53.232,-999.0,4.07,-999.0,no,yes,no,300234068243460,SVPGHI,AOML,UNKNOWN,North
2020-09-23T01:59:57Z,2020,2,0,267.0833,267.0833,65.83,-53.231,-999.0,4.02,-999.0,no,yes,no,300234068243460,SVPGHI,AOML,UNKNOWN,North
2020-09-23T03:00:00Z,2020,3,0,267.125,267.125,65.833,-53.232,-999.0,3.99,-999.0,no,yes,no,300234068243460,SVPGHI,AOML,UNKNOWN,North
2020-09-23T04:00:02Z,2020,4,0,267.1667,267.1667,65.835,-53.234,-999.0,3.87,-999.0,no,yes,no,300234068243460,SVPGHI,AOML,UNKNOWN,North
2020-09-23T04:59:57Z,2020,5,0,267.2083,267.2083,65.837,-53.237,-999.0,3.98,-999.0,no,yes,no,300234068243460,SVPGHI,AOML,UNKNOWN,North
2020-09-23T06:00:00Z,2020,6,0,267.25,267.25,65.838,-53.24,-999.0,3.84,-999.0,no,yes,no,300234068243460,SVPGHI,AOML,UNKNOWN,North
2020-09-23T07:00:02Z,2020,7,0,267.2917,267.2917,65.837,-53.237,-999.0,3.85,-999.0,no,yes,no,300234068243460,SVPGHI,AOML,UNKNOWN,North
2020-09-23T07:59:57Z,2020,8,0,267.3333,267.3333,65.836,-53.234,-999.0,3.85,-999.0,no,yes,no,300234068243460,SVPGHI,AOML,UNKNOWN,North
2020-09-23T09:00:00Z,2020,9,0,267.375,267.375,65.834,-53.232,-999.0,3.81,-999.0,no,yes,no,300234068243460,SVPGHI,AOML,UNKNOWN,North
2020-09-23T10:00:02Z,2020,10,0,267.4167,267.4167,65.833,-53.229,-999.0,4.02,-999.0,no,yes,no,300234068243460,SVPGHI,AOML,UNKNOWN,North
2020-09-23T10:59:57Z,2020,11,0,267.4583,267.4583,65.83,-53.232,-999.0,3.99,-999.0,no,yes,no,300234068243460,SVPGHI,AOML,UNKNOWN,North
2020-09-23T12:00:00Z,2020,12,0,267.5,267.5,65.829,-53.233,-999.0,4.02,-999.0,no,yes,no,300234068243460,SVPGHI,AOML,UNKNOWN,North
2020-09-23T13:00:02Z,2020,13,0,267.5417,267.5417,65.83,-53.23,-999.0,4.03,-999.0,no,yes,no,300234068243460,SVPGHI,AOML,UNKNOWN,North
2020-09-23T13:59:57Z,2020,14,0,267.5833,267.5833,65.832,-53.231,-999.0,4.08,-999.0,no,yes,no,300234068243460,SVPGHI,AOML,UNKNOWN,North
2020-09-23T15:00:00Z,2020,15,0,267.625,267.625,65.834,-53.233,-999.0,4.13,-999.0,no,yes,no,300234068243460,SVPGHI,AOML,UNKNOWN,North
2020-09-23T16:00:02Z,2020,16,0,267.6667,267.6667,65.836,-53.232,-999.0,4.13,-999.0,no,yes,no,300234068243460,SVPGHI,AOML,UNKNOWN,North
2020-09-23T16:59:57Z,2020,17,0,267.7083,267.7083,65.837,-53.233,-999.0,4.18,-999.0,no,yes,no,300234068243460,SVPGHI,AOML,UNKNOWN,North
2020-09-23T18:00:00Z,2020,18,0,267.75,267.75,65.837,-53.234,-999.0,4.12,-999.0,no,yes,no,300234068243460,SVPGHI,AOML,UNKNOWN,North
2020-09-23T19:00:02Z,2020,19,0,267.7917,267.7917,65.836,-53.233,-999.0,4.09,-999.0,no,yes,no,300234068243460,SVPGHI,AOML,UNKNOWN,North
2020-09-23T19:59:57Z,2020,20,0,267.8333,267.8333,65.833,-53.23,-999.0,4.09,-999.0,no,yes,no,300234068243460,SVPGHI,AOML,UNKNOWN,North
2020-09-23T21:00:00Z,2020,21,0,267.875,267.875,65.829,-53.229,-999.0,4.11,-999.0,no,yes,no,300234068243460,SVPGHI,AOML,UNKNOWN,North
2020-09-23T22:59:57Z,2020,23,0,267.9583,267.9583,65.824,-53.225,-999.0,4.11,-999.0,no,yes,no,300234068243460,SVPGHI,AOML,UNKNOWN,North
2020-09-24T00:00:00Z,2020,0,0,268.0,268.0,65.821,-53.223,-999.0,4.06,-999.0,no,yes,no,300234068243460,SVPGHI,AOML,UNKNOWN,North
2020-09-24T01:00:02Z,2020,1,0,268.0417,268.0417,65.82,-53.226,-999.0,4.06,-999.0,no,yes,no,300234068243460,SVPGHI,AOML,UNKNOWN,North
2020-09-24T01:59:57Z,2020,2,0,268.0833,268.0833,65.82,-53.231,-999.0,4.06,-999.0,no,yes,no,300234068243460,SVPGHI,AOML,UNKNOWN,North
2020-09-24T03:00:00Z,2020,3,0,268.125,268.125,65.822,-53.238,-999.0,4.06,-999.0,no,yes,no,300234068243460,SVPGHI,AOML,UNKNOWN,North
2020-09-24T04:00:02Z,2020,4,0,268.1667,268.1667,65.823,-53.245,-999.0,4.06,-999.0,no,yes,no,300234068243460,SVPGHI,AOML,UNKNOWN,North
2020-09-24T04:59:57Z,2020,5,0,268.2083,268.2083,65.825,-53.251,-999.0,4.05,-999.0,no,yes,no,300234068243460,SVPGHI,AOML,UNKNOWN,North
2020-09-24T06:00:00Z,2020,6,0,268.25,268.25,65.827,-53.257,-999.0,4.05,-999.0,no,yes,no,300234068243460,SVPGHI,AOML,UNKNOWN,North
2020-09-24T07:00:02Z,2020,7,0,268.2917,268.2917,65.828,-53.258,-999.0,3.99,-999.0,no,yes,no,300234068243460,SVPGHI,AOML,UNKNOWN,North
2020-09-24T07:59:57Z,2020,8,0,268.3333,268.3333,65.829,-53.258,-999.0,3.97,-999.0,no,yes,no,300234068243460,SVPGHI,AOML,UNKNOWN,North
2020-09-24T09:00:00Z,2020,9,0,268.375,268.375,65.829,-53.26,-999.0,4.05,-999.0,no,yes,no,300234068243460,SVPGHI,AOML,UNKNOWN,North
2020-09-24T10:00:02Z,2020,10,0,268.4167,268.4167,65.829,-53.256,-999.0,4.02,-999.0,no,yes,no,300234068243460,SVPGHI,AOML,UNKNOWN,North
2020-09-24T10:59:57Z,2020,11,0,268.4583,268.4583,65.829,-53.251,-999.0,3.99,-999.0,no,yes,no,300234068243460,SVPGHI,AOML,UNKNOWN,North
2020-09-24T12:00:00Z,2020,12,0,268.5,268.5,65.827,-53.247,-999.0,3.99,-999.0,no,yes,no,300234068243460,SVPGHI,AOML,UNKNOWN,North
2020-09-24T13:00:02Z,2020,13,0,268.5417,268.5417,65.828,-53.242,-999.0,4.01,-999.0,no,yes,no,300234068243460,SVPGHI,AOML,UNKNOWN,North
2020-09-24T13:59:57Z,2020,14,0,268.5833,268.5833,65.828,-53.238,-999.0,4.02,-999.0,no,yes,no,300234068243460,SVPGHI,AOML,UNKNOWN,North
2020-09-24T15:00:00Z,2020,15,0,268.625,268.625,65.829,-53.236,-999.0,4.08,-999.0,no,yes,no,300234068243460,SVPGHI,AOML,UNKNOWN,North
2020-09-24T16:00:02Z,2020,16,0,268.6667,268.6667,65.83,-53.234,-999.0,4.05,-999.0,no,yes,no,300234068243460,SVPGHI,AOML,UNKNOWN,North
2020-09-24T16:59:57Z,2020,17,0,268.7083,268.7083,65.831,-53.239,-999.0,4.11,-999.0,no,yes,no,300234068243460,SVPGHI,AOML,UNKNOWN,North
2020-09-24T18:00:00Z,2020,18,0,268.75,268.75,65.837,-53.232,-999.0,4.09,-999.0,no,yes,no,300234068243460,SVPGHI,AOML,UNKNOWN,North
2020-09-24T19:00:02Z,2020,19,0,268.7917,268.7917,65.83,-53.244,-999.0,4.06,-999.0,no,yes,no,300234068243460,SVPGHI,AOML,UNKNOWN,North
2020-09-24T19:59:57Z,2020,20,0,268.8333,268.8333,65.828,-53.247,-999.0,3.99,-999.0,no,yes,no,300234068243460,SVPGHI,AOML,UNKNOWN,North
2020-09-24T21:00:00Z,2020,21,0,268.875,268.875,65.828,-53.245,-999.0,3.98,-999.0,no,yes,no,300234068243460,SVPGHI,AOML,UNKNOWN,North
2020-09-24T22:00:02Z,2020,22,0,268.9167,268.9167,65.825,-53.247,-999.0,4.01,-999.0,no,yes,no,300234068243460,SVPGHI,AOML,UNKNOWN,North
2020-09-24T22:59:57Z,2020,23,0,268.9583,268.9583,65.824,-53.247,-999.0,3.99,-999.0,no,yes,no,300234068243460,SVPGHI,AOML,UNKNOWN,North
2020-09-25T00:00:00Z,2020,0,0,269.0,269.0,65.822,-53.249,-999.0,4.02,-999.0,no,yes,no,300234068243460,SVPGHI,AOML,UNKNOWN,North
2020-09-25T01:00:02Z,2020,1,0,269.0417,269.0417,65.822,-53.251,-999.0,3.95,-999.0,no,yes,no,300234068243460,SVPGHI,AOML,UNKNOWN,North
2020-09-25T01:59:57Z,2020,2,0,269.0833,269.0833,65.823,-53.252,-999.0,3.93,-999.0,no,yes,no,300234068243460,SVPGHI,AOML,UNKNOWN,North
2020-09-25T03:00:00Z,2020,3,0,269.125,269.125,65.825,-53.255,-999.0,3.92,-999.0,no,yes,no,300234068243460,SVPGHI,AOML,UNKNOWN,North
2020-09-25T04:00:02Z,2020,4,0,269.1667,269.1667,65.829,-53.259,-999.0,3.9,-999.0,no,yes,no,300234068243460,SVPGHI,AOML,UNKNOWN,North
2020-09-25T04:59:57Z,2020,5,0,269.2083,269.2083,65.833,-53.263,-999.0,3.94,-999.0,no,yes,no,300234068243460,SVPGHI,AOML,UNKNOWN,North
2020-09-25T06:00:00Z,2020,6,0,269.25,269.25,65.837,-53.269,-999.0,3.92,-999.0,no,yes,no,300234068243460,SVPGHI,AOML,UNKNOWN,North
2020-09-25T07:00:02Z,2020,7,0,269.2917,269.2917,65.84,-53.265,-999.0,3.92,-999.0,no,yes,no,300234068243460,SVPGHI,AOML,UNKNOWN,North
2020-09-25T07:59:57Z,2020,8,0,269.3333,269.3333,65.842,-53.265,-999.0,3.87,-999.0,no,yes,no,300234068243460,SVPGHI,AOML,UNKNOWN,North
2020-09-25T09:00:00Z,2020,9,0,269.375,269.375,65.844,-53.268,-999.0,3.93,-999.0,no,yes,no,300234068243460,SVPGHI,AOML,UNKNOWN,North
2020-09-25T10:00:02Z,2020,10,0,269.4167,269.4167,65.843,-53.268,-999.0,3.93,-999.0,no,yes,no,300234068243460,SVPGHI,AOML,UNKNOWN,North
2020-09-25T10:59:57Z,2020,11,0,269.4583,269.4583,65.843,-53.268,-999.0,3.89,-999.0,no,yes,no,300234068243460,SVPGHI,AOML,UNKNOWN,North
2020-09-25T12:00:00Z,2020,12,0,269.5,269.5,65.843,-53.267,-999.0,3.92,-999.0,no,yes,no,300234068243460,SVPGHI,AOML,UNKNOWN,North
2020-09-25T13:00:02Z,2020,13,0,269.5417,269.5417,65.844,-53.266,-999.0,3.99,-999.0,no,yes,no,300234068243460,SVPGHI,AOML,UNKNOWN,North
2020-09-25T13:59:57Z,2020,14,0,269.5833,269.5833,65.843,-53.268,-999.0,4.0,-999.0,no,yes,no,300234068243460,SVPGHI,AOML,UNKNOWN,North
2020-09-25T15:00:00Z,2020,15,0,269.625,269.625,65.844,-53.268,-999.0,4.04,-999.0,no,yes,no,300234068243460,SVPGHI,AOML,UNKNOWN,North
2020-09-25T16:00:02Z,2020,16,0,269.6667,269.6667,65.845,-53.266,-999.0,4.1,-999.0,no,yes,no,300234068243460,SVPGHI,AOML,UNKNOWN,North
2020-09-25T16:59:57Z,2020,17,0,269.7083,269.7083,65.846,-53.267,-999.0,4.16,-999.0,no,yes,no,300234068243460,SVPGHI,AOML,UNKNOWN,North
2020-09-25T18:00:00Z,2020,18,0,269.75,269.75,65.847,-53.269,-999.0,4.16,-999.0,no,yes,no,300234068243460,SVPGHI,AOML,UNKNOWN,North